TimeCDT,TemperatureF,Dew PointF,Humidity,Sea Level PressureIn,VisibilityMPH,Wind Direction,Wind SpeedMPH,Gust SpeedMPH,PrecipitationIn,Events,Conditions,WindDirDegrees,DateUTC
12:58 AM,35.8,35.8,100,29.74,10.0,ESE,4.6,-,N/A,,Overcast,120,2013-03-18 05:58:00
1:58 AM,36.0,36.0,100,29.72,10.0,SE,4.6,-,N/A,,Overcast,130,2013-03-18 06:58:00
2:33 AM,35.6,35.6,100,29.68,7.0,SE,3.5,-,N/A,,Overcast,140,2013-03-18 07:33:00
2:58 AM,36.0,36.0,100,29.72,4.0,Calm,Calm,-,N/A,,Overcast,0,2013-03-18 07:58:00
3:23 AM,35.6,35.6,100,29.70,2.5,Calm,Calm,-,N/A,,Overcast,330,2013-03-18 08:23:00
3:38 AM,35.6,35.6,100,29.69,1.8,NNW,3.5,-,N/A,,Overcast,330,2013-03-18 08:38:00
3:43 AM,35.6,35.6,100,29.70,1.0,NNW,4.6,-,N/A,,Mist,330,2013-03-18 08:43:00
3:48 AM,35.6,35.6,100,29.70,0.8,NNW,4.6,-,N/A,,Mist,330,2013-03-18 08:48:00
3:58 AM,36.1,36.1,100,29.73,0.8,NNW,4.6,-,N/A,,Mist,330,2013-03-18 08:58:00
4:33 AM,35.6,35.6,100,29.69,1.0,West,1.2,-,N/A,,Mist,280,2013-03-18 09:33:00
4:38 AM,35.6,35.6,100,29.70,1.0,WNW,2.3,-,N/A,,Mist,290,2013-03-18 09:38:00
4:43 AM,35.6,35.6,100,29.69,1.2,West,1.2,-,N/A,,Overcast,280,2013-03-18 09:43:00
4:58 AM,36.1,36.1,100,29.72,1.5,WNW,2.3,-,N/A,,Overcast,290,2013-03-18 09:58:00
5:13 AM,35.6,35.6,100,29.69,1.2,Calm,Calm,-,N/A,,Overcast,340,2013-03-18 10:13:00
5:18 AM,35.6,35.6,100,29.69,1.2,WNW,2.3,-,N/A,,Overcast,290,2013-03-18 10:18:00
5:28 AM,35.6,35.6,100,29.70,1.2,NNW,1.2,-,N/A,,Overcast,330,2013-03-18 10:28:00
5:33 AM,35.6,35.6,100,29.70,1.0,NW,1.2,-,N/A,,Mist,320,2013-03-18 10:33:00
5:38 AM,35.6,35.6,100,29.70,0.8,West,2.3,-,N/A,,Mist,270,2013-03-18 10:38:00
5:53 AM,35.6,35.6,100,29.72,1.0,West,4.6,-,N/A,,Mist,270,2013-03-18 10:53:00
5:58 AM,36.3,36.3,100,29.75,1.0,West,5.8,-,N/A,,Mist,270,2013-03-18 10:58:00
6:03 AM,35.6,35.6,100,29.73,0.8,West,4.6,-,N/A,,Mist,270,2013-03-18 11:03:00
6:08 AM,35.6,35.6,100,29.72,0.8,West,3.5,-,N/A,,Mist,270,2013-03-18 11:08:00
6:58 AM,36.5,36.5,100,29.75,0.8,West,3.5,-,N/A,,Mist,280,2013-03-18 11:58:00
7:18 AM,37.4,37.4,100,29.72,0.2,Variable,3.5,-,N/A,Fog,Fog,0,2013-03-18 12:18:00
7:48 AM,37.4,37.4,100,29.73,0.5,Variable,4.6,-,N/A,Fog,Fog,0,2013-03-18 12:48:00
7:55 AM,36.9,36.9,100,29.76,1.8,West,8.1,-,N/A,,Overcast,260,2013-03-18 12:55:00
8:26 AM,37.4,37.4,100,29.75,7.0,West,10.4,-,N/A,,Overcast,270,2013-03-18 13:26:00
8:58 AM,37.2,37.2,100,29.80,10.0,WNW,12.7,16.1,N/A,,Overcast,290,2013-03-18 13:58:00
9:18 AM,37.4,37.4,100,29.79,10.0,WNW,8.1,-,N/A,,Overcast,290,2013-03-18 14:18:00
9:58 AM,37.4,37.4,100,29.85,10.0,West,10.4,16.1,N/A,,Overcast,280,2013-03-18 14:58:00
9:59 AM,37.4,37.4,100,29.82,10.0,WNW,11.5,16.1,N/A,Rain,Light Rain,290,2013-03-18 14:59:00
10:12 AM,37.4,37.4,100,29.81,10.0,WNW,9.2,17.3,N/A,,Overcast,290,2013-03-18 15:12:00
10:58 AM,38.3,38.3,100,29.85,10.0,WNW,9.2,17.3,0.00,,Overcast,290,2013-03-18 15:58:00
11:38 AM,39.2,39.2,100,29.83,10.0,WNW,12.7,18.4,N/A,,Overcast,300,2013-03-18 16:38:00
11:58 AM,40.1,38.5,94,29.87,10.0,WNW,8.1,19.6,N/A,,Overcast,300,2013-03-18 16:58:00
12:58 PM,40.5,37.2,88,29.89,10.0,NW,11.5,17.3,N/A,,Overcast,310,2013-03-18 17:58:00
1:58 PM,43.2,38.3,83,29.89,10.0,West,12.7,-,N/A,,Overcast,280,2013-03-18 18:58:00
2:13 PM,42.8,37.4,81,29.86,10.0,West,9.2,18.4,N/A,,Overcast,280,2013-03-18 19:13:00
2:58 PM,46.8,36.7,68,29.89,10.0,WNW,10.4,17.3,N/A,,Mostly Cloudy,300,2013-03-18 19:58:00
3:18 PM,48.2,35.6,62,29.86,10.0,NW,10.4,20.7,N/A,,Scattered Clouds,320,2013-03-18 20:18:00
3:58 PM,47.5,34.2,60,29.88,10.0,NW,10.4,21.9,N/A,,Partly Cloudy,310,2013-03-18 20:58:00
4:58 PM,50.2,33.8,53,29.89,10.0,NW,10.4,18.4,N/A,,Scattered Clouds,320,2013-03-18 21:58:00
5:58 PM,51.4,29.3,43,29.89,10.0,WNW,11.5,19.6,N/A,,Clear,300,2013-03-18 22:58:00
6:58 PM,50.2,28.8,44,29.91,10.0,Variable,3.5,-,N/A,,Clear,0,2013-03-18 23:58:00
7:58 PM,46.2,27.5,48,29.92,10.0,West,4.6,-,N/A,,Clear,270,2013-03-19 00:58:00
8:58 PM,44.6,25.0,46,29.98,10.0,Variable,4.6,-,N/A,,Clear,0,2013-03-19 01:58:00
9:58 PM,41.2,25.7,54,30.00,10.0,West,4.6,-,N/A,,Clear,260,2013-03-19 02:58:00
10:58 PM,41.5,26.2,55,30.04,10.0,NW,5.8,-,N/A,,Clear,320,2013-03-19 03:58:00
11:58 PM,38.3,26.6,63,30.06,10.0,NNW,8.1,-,N/A,,Clear,340,2013-03-19 04:58:00